Date String (YYYY-MM-DD hh:mm:ss) UTC,Instrument flags,Ambient pressure (hPa),Sample flow (lpm),Bypass flow (lpm),Sample temperature (°C),Ambient temperature (°C),ASC tube jacket temperature (°C),LED temperature (°C),Box temperature (°C),Sample RH (%),Span deviation,Mass concentration (μg/m³),Mass concentration (μg/m³),Mass concentration (μg/m³)
DateTimeUTC,F1_M11,P_M11,Q1_M11,Q2_M11,T1_M11,T2_M11,T3_M11,T4_M11,T5_M11,U1_M11,ZSPAN_M11,X0_M11,X2_M11,X1_M11
2022-10-08 16:00:00,,0836.6,4.99,0.00,26.1,25.0,00.0,34.8,28.1,24.2,-002.2,0024.94,0014.78,0013.63
2022-10-08 16:01:00,,0836.6,5.00,0.00,26.1,25.0,00.0,34.8,28.1,24.0,-002.2,0025.43,0014.70,0013.54
2022-10-08 16:02:00,,0836.6,5.00,0.00,26.1,25.0,00.0,34.8,28.1,24.4,-002.2,0025.66,0014.63,0013.46
2022-10-08 16:03:00,,0836.7,5.00,0.00,26.2,25.0,00.0,34.8,28.1,24.2,-002.1,0025.69,0014.61,0013.42
2022-10-08 16:04:00,,0836.6,4.99,0.00,26.2,25.0,00.0,34.8,28.1,23.8,-002.0,0025.20,0014.53,0013.34
2022-10-08 16:05:00,,0836.6,4.99,0.00,26.2,25.0,00.0,34.9,28.1,23.6,-002.1,0024.85,0014.41,0013.26
2022-10-08 16:06:00,,0836.6,5.00,0.00,26.2,25.0,00.0,34.9,28.2,23.8,-002.1,0025.06,0014.33,0013.19
2022-10-08 16:07:00,,0836.6,5.02,0.00,26.2,25.1,00.0,34.9,28.2,23.9,-002.1,0025.05,0014.28,0013.12
2022-10-08 16:08:00,,0836.6,5.00,0.00,26.2,25.1,00.0,34.9,28.2,23.8,-002.1,0024.90,0014.25,0013.08
2022-10-08 16:09:00,,0836.6,5.00,0.00,26.2,25.1,00.0,34.9,28.2,23.7,-002.0,0024.15,0014.18,0013.03
2022-10-08 16:10:00,,0836.6,5.01,0.00,26.2,25.1,00.0,34.9,28.2,23.5,-001.9,0024.30,0014.12,0012.97
2022-10-08 16:11:00,,0836.6,5.00,0.00,26.3,25.1,00.0,34.9,28.2,23.5,-001.9,0023.69,0014.11,0012.94
2022-10-08 16:12:00,,0836.6,5.00,0.00,26.3,25.1,00.0,34.9,28.2,23.5,-001.9,0022.37,0014.07,0012.89
2022-10-08 16:13:00,,0836.5,5.00,0.00,26.3,25.1,00.0,34.9,28.3,23.5,-002.0,0022.14,0014.03,0012.84
2022-10-08 16:14:00,,0836.5,4.99,0.00,26.3,25.2,00.0,35.0,28.3,23.4,-002.0,0021.77,0013.88,0012.73
2022-10-08 16:15:00,,0836.5,4.99,0.00,26.3,25.2,00.0,35.0,28.3,23.4,-002.1,0021.52,0013.72,0012.59
2022-10-08 16:16:00,,0836.5,5.00,0.00,26.3,25.2,00.0,35.0,28.3,23.3,-002.0,0021.48,0013.60,0012.46
2022-10-08 16:17:00,,0836.5,5.01,0.00,26.3,25.2,00.0,35.0,28.3,23.3,-002.1,0021.11,0013.48,0012.35
2022-10-08 16:18:00,,0836.5,4.99,0.00,26.4,25.2,00.0,35.0,28.3,22.7,-002.0,0021.33,0013.31,0012.20
2022-10-08 16:19:00,,0836.5,5.00,0.00,26.4,25.2,00.0,35.0,28.3,22.8,-002.0,0021.44,0013.15,0012.04
2022-10-08 16:20:00,,0836.5,5.00,0.00,26.4,25.3,00.0,35.0,28.4,22.8,-002.0,0021.85,0013.02,0011.89
2022-10-08 16:21:00,,0836.5,5.00,0.00,26.4,25.3,00.0,35.0,28.4,22.8,-002.0,0022.26,0012.89,0011.75
2022-10-08 16:22:00,,0836.5,5.00,0.00,26.4,25.3,00.0,35.1,28.4,23.5,-002.3,0021.83,0012.70,0011.61
2022-10-08 16:23:00,,0836.5,5.00,0.00,26.4,25.3,00.0,35.1,28.4,23.3,-002.2,0021.57,0012.52,0011.47
2022-10-08 16:24:00,,0836.5,5.00,0.00,26.5,25.3,00.0,35.1,28.4,23.1,-002.3,0021.25,0012.36,0011.35
2022-10-08 16:25:00,,0836.5,5.00,0.00,26.5,25.4,00.0,35.1,28.4,23.2,-002.2,0021.07,0012.30,0011.31
2022-10-08 16:26:00,,0836.5,5.00,0.00,26.5,25.4,00.0,35.1,28.5,23.0,-002.2,0020.70,0012.25,0011.31
2022-10-08 16:27:00,,0836.5,5.00,0.00,26.5,25.4,00.0,35.1,28.5,22.9,-002.1,0020.41,0012.28,0011.33
2022-10-08 16:28:00,,0836.5,4.99,0.00,26.5,25.4,00.0,35.2,28.5,22.9,-002.1,0020.49,0012.27,0011.31
2022-10-08 16:29:00,,0836.5,5.00,0.00,26.5,25.4,00.0,35.2,28.5,23.2,-002.4,0020.08,0012.25,0011.32
2022-10-08 16:30:00,,0836.5,5.00,0.00,26.6,25.4,00.0,35.2,28.5,22.9,-002.4,0020.40,0012.22,0011.32
2022-10-08 16:31:00,,0836.5,5.00,0.00,26.6,25.4,00.0,35.2,28.5,23.1,-002.5,0020.50,0012.26,0011.34
2022-10-08 16:32:00,,0836.5,5.00,0.00,26.6,25.5,00.0,35.2,28.5,22.8,-002.5,0020.21,0012.22,0011.32
2022-10-08 16:33:00,,0836.5,5.00,0.00,26.6,25.5,00.0,35.2,28.6,22.7,-002.1,0019.98,0012.26,0011.34
2022-10-08 16:34:00,,0836.5,5.00,0.00,26.6,25.5,00.0,35.3,28.6,22.8,-002.0,0020.34,0012.31,0011.36
2022-10-08 16:35:00,,0836.5,5.00,0.00,26.6,25.5,00.0,35.3,28.6,23.1,-001.9,0020.57,0012.34,0011.36
2022-10-08 16:36:00,,0836.5,5.00,0.00,26.6,25.5,00.0,35.3,28.6,23.1,-002.0,0020.80,0012.33,0011.35
2022-10-08 16:37:00,,0836.5,5.01,0.00,26.7,25.5,00.0,35.3,28.6,22.7,-001.9,0020.85,0012.35,0011.34
2022-10-08 16:38:00,,0836.5,5.00,0.00,26.7,25.6,00.0,35.3,28.6,22.8,-001.9,0020.43,0012.31,0011.30
2022-10-08 16:39:00,,0836.5,4.99,0.00,26.7,25.6,00.0,35.3,28.7,22.6,-001.9,0020.12,0012.24,0011.27
2022-10-08 16:40:00,,0836.4,5.00,0.00,26.7,25.6,00.0,35.3,28.7,22.7,-001.8,0020.48,0012.29,0011.28
2022-10-08 16:41:00,,0836.4,5.00,0.00,26.7,25.6,00.0,35.3,28.7,22.8,-001.7,0020.28,0012.30,0011.26
2022-10-08 16:42:00,,0836.4,5.00,0.00,26.7,25.6,00.0,35.4,28.7,23.3,-001.6,0020.47,0012.21,0011.23
2022-10-08 16:43:00,,0836.3,5.00,0.00,26.8,25.6,00.0,35.4,28.7,23.2,-001.5,0019.63,0012.16,0011.21
2022-10-08 16:44:00,,0836.3,5.00,0.00,26.8,25.6,00.0,35.4,28.7,23.1,-001.6,0019.58,0012.12,0011.19
2022-10-08 16:45:00,,0836.3,5.01,0.00,26.8,25.7,00.0,35.4,28.8,23.2,-001.7,0019.23,0012.03,0011.14
2022-10-08 16:46:00,,0836.3,5.00,0.00,26.8,25.7,00.0,35.4,28.8,23.2,-001.6,0019.63,0011.95,0011.09
2022-10-08 16:47:00,,0836.3,5.00,0.00,26.8,25.7,00.0,35.4,28.8,23.1,-001.7,0019.82,0011.97,0011.09
2022-10-08 16:48:00,,0836.3,5.01,0.00,26.8,25.7,00.0,35.5,28.8,22.9,-001.5,0019.81,0011.95,0011.05
2022-10-08 16:49:00,,0836.2,5.00,0.00,26.9,25.8,00.0,35.5,28.8,22.9,-001.6,0020.67,0011.92,0011.03
2022-10-08 16:50:00,,0836.2,5.00,0.00,26.9,25.8,00.0,35.5,28.8,23.1,-001.5,0020.65,0011.92,0011.02
2022-10-08 16:51:00,,0836.2,5.00,0.00,26.9,25.8,00.0,35.5,28.9,23.4,-001.3,0020.81,0011.84,0010.97
2022-10-08 16:52:00,,0836.2,5.00,0.00,26.9,25.8,00.0,35.5,28.8,23.1,-001.3,0020.73,0011.83,0010.95
2022-10-08 16:53:00,,0836.2,5.00,0.00,26.9,25.8,00.0,35.5,28.9,23.0,-001.3,0020.05,0011.81,0010.94
2022-10-08 16:54:00,,0836.2,5.00,0.00,26.9,25.8,00.0,35.6,28.9,22.8,-001.3,0019.76,0011.86,0010.96
2022-10-08 16:55:00,,0836.2,5.00,0.00,26.9,25.8,00.0,35.6,28.9,22.6,-001.3,0019.79,0011.90,0010.97
2022-10-08 16:56:00,,0836.2,5.00,0.00,27.0,25.9,00.0,35.6,28.9,22.5,-001.4,0019.83,0011.94,0010.98
2022-10-08 16:57:00,,0836.2,5.01,0.00,27.0,25.9,00.0,35.6,28.9,22.7,-001.3,0019.40,0012.01,0011.03
2022-10-08 16:58:00,,0836.2,5.00,0.00,27.0,25.9,00.0,35.6,29.0,22.7,-001.3,0019.18,0011.98,0011.01
2022-10-08 16:59:00,,0836.2,5.00,0.00,27.0,25.9,00.0,35.6,29.0,22.6,-001.4,0019.58,0012.00,0011.01
